Miscellaneous Local Product
Issued by NWS Hastings, NE

Home | Current Version | Previous Version | Graphics & Text | Print | Product List | Glossary On
Versions: 1 2 3 4 5 6 7 8 9 10 11 12 13 14 15 16 17 18 19 20 21 22 23 24 25 26 27 28 29 30 31 32 33 34 35 36 37 38 39 40 41 42 43 44 45 46 47 48 49 50
073
AXUS43 KGID 060302
MISGRI

GID CWA HOURLY WEATHER ROUNDUP
NATIONAL WEATHER SERVICE HASTINGS NE
900 PM CST FRI FEB 05 2016

NOTE: "FAIR" INDICATES FEW OR NO CLOUDS BELOW 12,000 FEET WITH NO
SIGNIFICANT WEATHER AND/OR OBSTRUCTIONS TO VISIBILITY.

...SOUTH CENTRAL NEBRASKA...

CITY           SKY/WX    TMP DP  RH WIND       PRES   REMARKS
GRAND ISLAND   CLOUDY    33  29  85 NW5       30.25R WCI  29
HASTINGS       CLOUDY    32  28  85 NW5       30.25R WCI  27
ORD            CLOUDY    34  26  72 NW10      30.23F WCI  26
YORK           CLOUDY    32  28  86 NW8       30.24S WCI  25
AURORA         PTCLDY    29  28  96 NW8       30.24S WCI  22
LEXINGTON      CLEAR     26  22  85 N5        30.26R WCI  20
HOLDREGE       MOCLDY    32  26  77 N7        30.25R WCI  26
HEBRON         PTCLDY    27  24  88 W5        30.25S WCI  22

...NEBRASKA PANHANDLE...

CITY           SKY/WX    TMP DP  RH WIND       PRES   REMARKS
CHADRON        CLEAR     25  17  72 W12       30.22S WCI  14
ALLIANCE       CLEAR     16  10  77 W12       30.22F WCI   3
SCOTTSBLUFF    CLOUDY    16  11  80 NW10      30.26F WCI   4
SIDNEY         CLOUDY    21  13  71 W18       30.26F WCI   6

...WESTERN AND NORTH CENTRAL NEBRASKA...

CITY           SKY/WX    TMP DP  RH WIND       PRES   REMARKS
VALENTINE      CLEAR     22  19  89 SW7       30.20F WCI  13
AINSWORTH      CLEAR     26  23  91 SW6       30.22S WCI  19
ONEILL         CLEAR     32  28  86 W3        30.23S
BROKEN BOW     CLEAR     25  21  85 NW6       30.24S WCI  18
IMPERIAL       CLEAR     25  16  68 NW13      30.27S WCI  14
NORTH PLATTE   CLEAR     21  18  88 NW5       30.25R WCI  15
MCCOOK         CLEAR     26  20  77 W12       30.27S WCI  16

...EASTERN NEBRASKA...

CITY           SKY/WX    TMP DP  RH WIND       PRES   REMARKS
NORFOLK        CLOUDY    35  30  82 NW15      30.22S WCI  25
SO SIOUX CITY  CLOUDY    29  25  85 CALM      30.23R FOG
TEKAMAH        CLOUDY    29  27  92 S5        30.23S FOG     WCI  24
COLUMBUS       CLOUDY    34  27  75 NW12      30.24R WCI  25
ALBION         CLOUDY    35  29  80 NW12G18   30.24R WCI  26
OMAHA EPPLEY   CLOUDY    29  28  96 SE6       30.24S FOG     WCI  23
OFFUTT AFB     CLOUDY    27  27  99 E3        30.23F FOG
MILLARD        CLOUDY    31  29  93 CALM      30.23F FOG
LINCOLN        CLOUDY    30  27  88 CALM      30.25S
NEBRASKA CITY  CLOUDY    29  29 100 S6        30.24F WCI  23
BEATRICE       PTCLDY    31  28  86 W3        30.25R
FALLS CITY     CLOUDY    34  26  72 CALM      30.26S

...NORTHERN KANSAS...

CITY           SKY/WX    TMP DP  RH WIND       PRES   REMARKS
GOODLAND       CLEAR     23  15  71 NW13      30.28S WCI  11
HILL CITY      CLEAR     29  22  75 NW10      30.28S WCI  20
NORTON         CLEAR     25  19  80 W10       30.26S WCI  15
PHILLIPSBURG   CLEAR     30  27  86 CALM      30.28R
BELOIT         MOCLDY    30  27  86 CALM      30.27R
HAYS           MOCLDY    30  18  59 NW7       30.28S WCI  23
RUSSELL        CLOUDY    33  28  81 NW12      30.26S WCI  24
CONCORDIA      CLEAR     31  25  78 W6        30.26S WCI  25
SALINA         CLEAR     33  24  69 W8        30.28S WCI  26
TOPEKA         CLOUDY    33  25  72 CALM      30.27S



USA.gov is the U.S. government's official web portal to all federal, state and local government web resources and services.